User: anonymous   Login
Location: Shell Point
(30.0571°N, 84.2896°W)
Time: 08:19:26
(UTC-05:00)
Language:

Meteor 2-19 Rocket - Orbit

View from above orbital plane
View from above orbital plane
View from above satellite
View from above satellite

Ground track
Ground track

The orbit data is extracted from the following two-line orbital elements,

1 20671U 90057B   17023.76561595  .00000010  00000-0 -46025-5 0  9998
2 20671  82.5488 126.9229 0015255   7.8772 352.2625 13.84605669343084
Epoch (UTC): 23 January 2017 18:22:29
Eccentricity: 0.0015255
inclination: 82.5488°
perigee height: 936 km
apogee height: 959 km
right ascension of ascending node: 126.9229°
argument of perigee: 7.8772°
revolutions per day: 13.84605669
mean anomaly at epoch: 352.2625°
orbit number at epoch: 34308

The dashed part of the orbit path shows where the satellite is in the earth's shadow,  

DLR